Regional Weather Roundup
Issued by NWS Mobile, AL

Home | Current Version | Previous Version | Text Only | Print | Product List | Glossary On
Versions: 1 2 3 4 5 6 7 8 9 10 11 12 13 14 15 16 17 18 19 20 21 22 23 24 25 26 27 28 29 30 31 32 33 34 35 36 37 38 39 40
000
ASUS44 KMOB 280010
RWRMOB
REGIONAL WEATHER ROUNDUP
NATIONAL WEATHER SERVICE MOBILE AL
600 PM CST SAT DEC 27 2014

NOTE: "FAIR" INDICATES FEW OR NO CLOUDS BELOW 12,000 FEET WITH NO
      SIGNIFICANT WEATHER AND/OR OBSTRUCTIONS TO VISIBILITY.

  * THESE STATIONS ARE PART OF THE UNIVERSITY OF SOUTH ALABAMA
    MESONET AND ARE NOT UNDER NWS OR FAA QUALITY CONTROL.

ALZ061>064-280100-
COASTAL ALABAMA

CITY           SKY/WX    TMP DP  RH WIND       PRES   REMARKS
MOBILE REG APT LGT RAIN  59  59 100 E14       30.14R
6HR MIN TEMP:  59; 6HR MAX TEMP:  60; 6HR PCP:  0.95;

BROOKLEY FIELD LGT RAIN  60  59  96 E8        30.15R
6HR MIN TEMP:  59; 6HR MAX TEMP:  61; 6HR PCP:  1.15;

USA CAMPUS*    NOT AVBL
DOG RIVER*     NOT AVBL


CITY           SKY/WX    TMP DP  RH WIND       PRES   REMARKS
MOUNT VERNON*  NOT AVBL
SARALAND*      NOT AVBL
BAY MINETTE*   NOT AVBL
LOXLEY*          N/A     57  57 100 E8        30.15R
ROBERTSDALE*     N/A     57  57 100 E8        30.15R
FAIRHOPE*        N/A     59  59 100 E10       30.14R
ELBERTA*         N/A     59  59 100 E13       30.13R
FOLEY*           N/A     52  50  93 CALM      30.17R
GRAND BAY*       N/A     63  63 100 SE7       30.11R
DAUPHIN ISLND* NOT AVBL
BON SCOUR NWR* NOT AVBL
GULF SHORES    CLOUDY    61  61  99 E12       30.14R

$$

ALZ051>060-280100-
INTERIOR SOUTHWEST AND SOUTH CENTRAL ALABAMA

CITY           SKY/WX    TMP DP  RH WIND       PRES   REMARKS
GREENVILLE     TSTM      52  48  87 E6        30.18R FOG
6HR MIN TEMP:  51; 6HR MAX TEMP:  60; 6HR PCP:  0.84;

EVERGREEN      RAIN      54  53  97 E7        30.17S FOG
6HR MIN TEMP:  53; 6HR MAX TEMP:  60; 6HR PCP:  1.50;

CASTLEBERRY*   NOT AVBL
ATMORE*          N/A     54  54 100 E9        30.19S
DIXIE*           N/A     50  50 100 CALM      30.16F
ANDALUSIA/OPP  CLOUDY    54  49  83 SE9       30.17F
6HR MIN TEMP:  53; 6HR MAX TEMP:  65; 6HR PCP:  1.32;

ANDALUSIA*       N/A     50  50 100 E10       30.17F
FLORALA APT    CLOUDY    52  50  93 E3        30.21S
6HR MIN TEMP:  52; 6HR MAX TEMP:  65; 6HR PCP:  0.07;

FLORALA*         N/A     52  50  93 CALM      30.17R

$$

FLZ001>006-280100-
WESTERN FLORIDA PANHANDLE

CITY           SKY/WX    TMP DP  RH WIND       PRES   REMARKS
PENSACOLA      CLOUDY    58  56  93 E8        30.17R
6HR MIN TEMP:  57; 6HR MAX TEMP:  62; 6HR PCP:  0.23;

NAS PENSACOLA  NOT AVBL
MILTON         CLOUDY    55  55 100 E10       30.17S
6HR MIN TEMP:  55; 6HR MAX TEMP:  62;

WHTNG S FIELD  NOT AVBL


CITY           SKY/WX    TMP DP  RH WIND       PRES   REMARKS
WALNUT HILL*   NOT AVBL
JAY*           NOT AVBL
DUKE FIELD     CLOUDY    58  54  87 E6        30.19R
CRESTVIEW      CLOUDY    55  50  83 NE5       30.21S
6HR MIN TEMP:  55; 6HR MAX TEMP:  66; 6HR PCP: TRACE;

VALPARAISO     CLOUDY    60  55  84 NE7       30.19R
6HR MIN TEMP:  60; 6HR MAX TEMP:  63; 6HR PCP:  0.03;

DESTIN         CLOUDY    61  58  90 NE6       30.19R
6HR MIN TEMP:  61; 6HR MAX TEMP:  64; 6HR PCP:  0.02;


$$

MSZ076-079-280100-
INTERIOR SOUTHEAST MISSISSIPPI

CITY           SKY/WX    TMP DP  RH WIND       PRES   REMARKS
LEAKESVILLE*   NOT AVBL
AGRICOLA*      NOT AVBL

$$

MARINE OBSERVATIONS

STATION/POSITION TIME  TEMP    WIND        PRES    WAVE
                       AIR SEA DIR/SP/G            HT/PER
                 (UTC) (F)     (DEG/KT/KT) (MB)    (FT/S)
PASCAGOULA       0000   66     110/ 13/ 17 1019.1S
PETIT BOIS ISLND 0000   64      80/  8/ 10 1020.0S
GRAND BAY        2300   62     120/ 12     1020.0S
KATRINA CUT      2300   62     100/ 15     1020.3S
CEDAR POINT      2300   61      70/  8     1020.0R
E DAUPHIN ISLAND 0000   63     100/ 16/ 19 1019.8R
MIDDLE BAY LIGHT 2300   57      90/ 16     1018.6S
USCG MOBILE BAY  0000   59 57  100/  8/  9 1019.2F
STATE DOCKS      0000   59 56              1020.0S
MEAHER PARK      2300   60      80/  7     1020.0R
WEEKS BAY        2300   62                   N/A
FORT MORGAN      0000   64     110/ 20/ 23 1019.5R
12 S ORANGE BCH  0000   67 68   80/ 14/ 16 1019.7R   4/ 6
PENSACOLA BAY    0000   60 60   50/  5/  8 1021.8R
64 S DAUPHIN ISL 0000   74 74  160/ 17/ 19 1018.9R   5/ 6

$$

SELECTED LOCATIONS ACROSS THE REGION

CITY           SKY/WX    TMP DP  RH WIND       PRES   REMARKS
NEW ORLEANS    CLOUDY    70  68  93 S8        30.07R FOG
GULFPORT       CLOUDY    65  65 100 SE12      30.09R
PASCAGOULA AP  LGT RAIN  67  66  97 SE9       30.11R
PASCAGOULA*      N/A     64  64 100 E7        30.11R
HATTIESBURG    LGT RAIN  59  58  96 E6        30.10R
LAUREL         CLOUDY    59  55  88 SE8       30.09S
MERIDIAN       CLOUDY    59  59 100 CALM      30.09F
JACKSON        LGT RAIN  61  60  97 E5        30.04F FOG
MONTGOMERY     LGT RAIN  52  49  89 E8        30.21F
TROY           RAIN      50  48  93 CALM      30.23F FOG
KINSTON*       NOT AVBL
GENEVA*          N/A     55  50  82 E5        30.23F
ASHFORD*         N/A     50  50 100 E10       30.17F
DOTHAN         LGT RAIN  54  52  93 N8        30.25F
PANAMA CITY    CLOUDY    63  55  75 CALM      30.19R

$$




USA.gov is the U.S. government's official web portal to all federal, state and local government web resources and services.